Simultaneous Nadir Overpasses (SNOs) Predictions

Prediction of SNOs between GOES-17 and LANDSAT-8 Satellite Orbit:

Table of predicted SNOs for the next 14.0 days since TLE Epoch: 4/20/2024
Index Date Time (GOES-17) GOES-17 Lat,Lon LANDSAT-8 Lat,Lon Distance(km) Time Diff (sec)
1 04/21/2024 05:00:25 -0.00,-104.70 0.45,-102.57 241.87 80
2 04/21/2024 17:21:41 0.00,-104.70 0.62,-107.73 344.36 80
3 04/23/2024 17:09:29 0.01,-104.70 0.03,-104.77 8.02 80
4 04/25/2024 16:59:57 0.02,-104.71 -0.60,-101.82 328.42 80
5 04/26/2024 05:21:21 -0.02,-104.71 -0.49,-107.01 261.99 80
6 04/28/2024 05:06:28 -0.00,-104.70 0.13,-104.05 73.73 80
7 04/30/2024 04:54:15 0.01,-104.70 0.80,-101.10 409.42 80
8 04/30/2024 17:15:30 -0.01,-104.70 0.30,-106.26 177.08 80
9 05/02/2024 17:05:55 -0.02,-104.69 -0.30,-103.29 159.43 80
10 05/03/2024 05:27:18 0.01,-104.69 -0.82,-108.47 430.38 80
